Вернуться в каталог

CHINASAT 19

АктивенСвязьGEO
NORAD 54230·PAYLOAD·🇨🇳 China

Запущен Nov 5, 2022 с Xichang Satellite Launch Center

Loading…

TLE

СвежийSource: Space-Track

Эпоха: Sep 14, 2026, 21:25 UTC

1 54230U 22148A   26257.89253395 -.00000089  00000-0  00000-0 0  9995
2 54230   0.0135 218.5935 0004470 319.8371 299.9171  1.00272615 14282

Отслеживайте CHINASAT 19 в реальном времени с AllMySat

Download on the App Store